This is the latest recevied weather packets stored in our database for station/object N1OF. If no packets are shown the sender has not sent any weather packets the latest 10 day(s).
| Time | Temp. | Humidity | Pressure | Rain* | Wind** | Luminosity | Snow |
|---|---|---|---|---|---|---|---|
| 1777239490 | 12.78° C | 78% | 1020.1 hPa | 0 mm | - | - | - |
| 1777239187 | 12.78° C | 78% | 1020.3 hPa | 0 mm | - | - | - |
| 1777238884 | 12.78° C | 78% | 1020.2 hPa | 0 mm | - | - | - |
| 1777238581 | 12.78° C | 78% | 1020.3 hPa | 0 mm | - | - | - |
| 1777238277 | 12.78° C | 77% | 1020.4 hPa | 0 mm | - | - | - |
| 1777237975 | 12.78° C | 77% | 1020.6 hPa | 0 mm | - | - | - |
| 1777237670 | 12.78° C | 77% | 1020.4 hPa | 0 mm | - | - | - |
| 1777237368 | 13.33° C | 75% | 1020.4 hPa | 0 mm | - | - | - |
| 1777237066 | 12.78° C | 75% | 1020.5 hPa | 0 mm | - | - | - |
| 1777236764 | 13.33° C | 75% | 1020.4 hPa | 0 mm | - | - | - |
| 1777236462 | 12.78° C | 76% | 1020.1 hPa | 0 mm | - | - | - |
| 1777236158 | 13.33° C | 75% | 1020.3 hPa | 0 mm | - | - | - |
| 1777235854 | 13.89° C | 75% | 1020.1 hPa | 0 mm | - | - | - |
| 1777235546 | 13.33° C | 75% | 1020.1 hPa | 0 mm | - | - | - |
| 1777235242 | 13.33° C | 75% | 1020.3 hPa | 0 mm | - | - | - |
| 1777234938 | 13.33° C | 75% | 1020.3 hPa | 0 mm | - | - | - |
| 1777234635 | 13.33° C | 75% | 1020.1 hPa | 0 mm | - | - | - |
| 1777234329 | 13.33° C | 76% | 1020.1 hPa | 0 mm | - | - | - |
| 1777234025 | 13.33° C | 75% | 1020.3 hPa | 0 mm | - | - | - |
| 1777233722 | 13.33° C | 76% | 1019.9 hPa | 0 mm | - | - | - |
| 1777233417 | 13.33° C | 75% | 1020.3 hPa | 0 mm | - | - | - |
| 1777233112 | 13.33° C | 75% | 1020.1 hPa | 0 mm | - | - | - |
| 1777232808 | 13.89° C | 74% | 1020.5 hPa | 0 mm | - | - | - |
| 1777232507 | 12.78° C | 77% | 1020.6 hPa | 0 mm | - | - | - |
| 1777232205 | 12.78° C | 76% | 1020.5 hPa | 0 mm | - | - | - |
* Rain latest hour (hover to see other rain measurements)
** Current wind speed in m/s (hover to see current wind gust speed)